Location: Songkhla
(7.2000°N, 100.6000°E)
Time: 12:13:59
(UTC+07:00)

ISS - All Passes

Search period start: 28 May 2018 00:00
Search period end: 07 June 2018 00:00
Orbit: 402 x 407 km, 51.6° (Epoch: 28 May)

Date Brightness Start Highest point End Pass type
(mag) Time Alt. Az. Time Alt. Az. Time Alt. Az.
28 May - 03:15:47 10° NNW 03:18:56 49° NE 03:22:05 10° SE night (unlit)
28 May - 16:29:19 10° WSW 16:32:18 33° NW 16:35:17 10° NNE daylight
29 May - 02:24:24 10° N 02:26:45 18° NE 02:29:05 10° E night (unlit)
29 May - 04:01:22 10° W 04:03:00 13° SW 04:04:39 10° SSW night (unlit)
29 May - 15:36:52 10° SSW 15:40:09 80° SE 15:43:24 10° NE daylight
30 May - 03:07:53 10° WNW 03:10:52 34° SW 03:13:51 10° SSE night (unlit)
30 May - 14:45:10 10° S 14:47:59 26° SE 14:50:47 10° ENE daylight
31 May - 02:15:29 10° NNW 02:18:42 76° NE 02:21:57 10° SE night (unlit)
31 May - 13:55:13 10° SE 13:55:49 10° SE 13:56:25 10° ESE daylight
31 May - 15:29:22 10° WSW 15:32:04 23° NW 15:34:45 10° N daylight
01 Jun - 01:23:45 10° N 01:26:30 25° NE 01:29:15 10° ESE night (unlit)
01 Jun - 14:36:36 10° SW 14:39:51 68° NW 14:43:06 10° NNE daylight
02 Jun - 00:33:42 10° NE 00:34:14 10° NE 00:34:45 10° ENE night (unlit)
02 Jun - 02:07:52 10° WNW 02:10:33 24° SW 02:13:15 10° S night (unlit)
02 Jun - 13:44:35 10° SSW 13:47:39 37° SE 13:50:43 10° NE daylight
03 Jun - 01:15:08 10° NW 01:18:21 72° SW 01:21:36 10° SSE night (unlit)
03 Jun - 12:53:33 10° SSE 12:55:27 14° SE 12:57:20 10° E daylight
03 Jun - 14:29:29 10° W 14:31:43 17° NW 14:33:57 10° N daylight
04 Jun - 00:23:07 10° NNW 00:26:08 36° NE 00:29:09 10° ESE night (unlit)
04 Jun - 13:36:18 10° SW 13:39:27 45° NW 13:42:35 10° NNE daylight
04 Jun - 23:32:01 10° NNE 23:33:50 14° NE 23:35:41 10° E night (unlit)
05 Jun - 01:07:54 10° W 01:10:08 17° SW 01:12:22 10° SSW night (unlit)
05 Jun - 12:43:59 10° SSW 12:47:12 56° SE 12:50:24 10° NE daylight
06 Jun - 00:14:46 10° NW 00:17:53 47° SW 00:21:02 10° SSE night (unlit)
06 Jun - 11:52:28 10° S 11:54:58 20° SE 11:57:26 10° ENE daylight
06 Jun - 13:29:45 10° W 13:31:16 13° NW 13:32:46 10° NNW daylight
06 Jun - 23:22:28 10° NNW 23:25:38 53° NE 23:28:48 10° SE night (unlit)
